RH
68 60 46 45 44 60 63 60 56 56 59 66 71 70 62 58 56 55 53 52 54 61 74 93 94 97 95 90 90 87 89 90 91 91 92 92 92 92 91 91 91 91 92
68 73 61 50 56 56 63 68 68 66 66 65 63 65 68 70 68 57 52 51 50 52 59 73 92 91 94 92 90 90 89 91 91 91 92 93 94 93 91 90 90 89 89
73 72 77 58 59 65 68 70 72 74 74 72 68 67 68 71 73 76 66 56 54 53 52 59 85 91 92 91 89 88 90 91 91 90 91 92 91 90 89 90 89 89 88
72 76 77 77 75 69 69 71 72 72 74 76 75 71 71 72 73 73 75 76 73 64 56 51 53 73 90 91 89 86 89 90 89 87 87 91 91 91 89 88 89 89 87
71 73 74 75 79 82 83 81 76 74 74 74 73 75 75 74 73 73 72 73 74 79 75 59 51 56 72 86 88 86 81 92 90 89 86 88 89 89 87 87 88 88 88
72 74 75 74 76 81 83 81 83 80 75 81 84 82 79 76 75 74 73 72 72 72 78 77 57 51 57 71 87 87 85 84 92 90 90 87 87 86 86 85 85 86 85
75 82 84 83 81 83 78 80 85 84 86 81 92 88 80 71 69 69 70 68 64 67 72 73 64 56 53 58 76 84 87 83 86 94 89 88 84 83 83 82 83 84 84
95 96 95 95 94 93 91 88 88 96 92 87 94 94 84 71 67 67 68 65 62 64 65 64 62 59 54 52 57 67 79 87 82 83 95 90 86 80 78 78 79 81 81
100 100 100 100 100 100 99 100 100 100 100 94 93 94 94 82 76 68 64 64 66 65 62 62 62 63 59 57 54 60 76 82 86 81 80 95 92 82 78 75 75 77 80
45 49 53 60 64 76 93 98 100 99 100 99 96 97 98 96 94 92 75 70 70 73 72 72 72 67 69 61 58 58 61 79 87 91 83 89 96 96 80 75 74 76 77
52 52 53 54 54 58 64 90 100 99 100 100 97 98 100 100 100 100 97 86 78 70 72 77 80 78 76 73 71 70 69 70 80 94 96 92 97 98 98 94 86 79 88
70 67 65 65 66 68 72 84 97 98 99 100 99 100 98 93 94 97 98 95 90 76 73 74 83 83 81 82 78 77 75 75 77 95 93 97 99 100 95 94 96 96 90
71 70 69 68 67 69 72 87 100 98 100 98 100 99 99 98 100 100 100 98 95 87 76 78 79 80 82 82 80 77 71 72 73 88 97 98 98 100 96 98 99 98 95
74 72 70 67 65 64 69 81 98 96 100 100 100 100 100 100 98 100 100 100 96 93 87 80 86 83 81 82 83 82 84 85 88 89 99 100 98 99 99 99 95 98 92
73 72 70 69 68 68 70 84 93 89 96 100 100 98 99 100 99 96 98 99 91 89 94 92 89 86 89 87 87 88 90 92 98 88 98 100 99 100 100 92 91 91 90
76 76 76 75 75 74 75 79 89 93 91 93 93 90 90 94 96 95 96 100 99 100 97 99 99 100 92 92 94 99 100 99 99 97 89 100 92 96 98 100 100 100 99
81 81 81 81 81 81 83 86 87 89 94 99 99 99 99 98 99 96 96 97 98 99 100 100 100 95 96 96 98 100 99 100 99 100 100 100 97 90 89 89 88 90 86
87 86 85 85 86 87 89 89 89 93 95 98 99 95 94 95 93 93 91 90 91 91 96 100 99 96 95 94 95 98 98 96 95 98 100 100 93 85 92 91 92 91 92
93 92 91 88 91 93 94 95 94 92 92 92 91 90 90 89 90 90 88 88 89 90 92 99 100 98 96 94 96 94 93 91 91 92 92 94 96 98 96 95 96 97 97
98 98 99 98 97 99 100 99 98 98 99 99 98 96 94 92 92 90 88 88 89 89 91 99 100 100 98 96 97 100 97 89 86 85 85 90 91 93 98 96 95 96 92
99 99 99 99 99 100 100 95 96 99 99 98 98 97 95 95 95 97 95 87 80 77 87 94 92 93 89 86 90 87 84 76 70 63 62 60 60 62 63 66 70 76 78
99 99 99 99 100 100 95 89 88 91 92 91 88 85 80 74 72 85 88 79 84 71 61 84 87 75 77 78 79 79 80 70 64 64 66 62 51 47 43 41 39 38 36
98 98 99 96 91 95 76 57 49 48 43 39 39 45 58 73 63 50 47 50 56 86 76 62 71 76 76 75 72 76 81 79 72 75 77 64 53 56 45 50 47 36 57
95 85 70 69 74 79 56 35 33 34 38 45 56 60 71 84 88 72 60 50 59 79 92 85 82 87 87 90 90 86 84 83 77 80 70 72 74 72 69 61 55 55 62
69 65 70 73 72 75 52 37 36 40 44 46 52 73 74 77 84 86 72 61 50 54 74 77 76 76 80 75 84 82 90 86 69 76 84 91 88 88 83 78 70 81 96
65 67 70 72 76 81 85 58 53 46 46 48 49 50 66 87 83 79 76 64 58 72 72 68 55 47 48 54 60 62 70 84 83 79 90 96 95 92 88 76 74 73 86
Wind_Speed
9 9 10 10 9 9 9 9 10 10 10 11 11 12 11 12 11 11 12 11 12 12 13 11 10 9 9 8 7 5 5 4 3 3 3 2 2 3 4 5 5 5 5
11 10 11 11 10 10 10 10 10 11 12 13 13 14 14 14 15 16 15 15 14 15 16 15 13 12 11 10 9 8 7 6 6 5 5 4 4 3 3 3 4 4 5
12 13 12 12 12 12 13 14 14 14 15 15 16 15 15 16 17 17 17 18 18 18 18 19 17 15 14 13 12 11 9 9 8 7 7 7 7 7 6 5 4 4 5
14 15 16 15 14 15 16 16 17 18 19 19 19 19 19 19 19 20 21 22 23 22 21 20 20 19 17 16 14 13 13 12 11 11 10 9 9 8 8 7 7 6 6
17 17 19 19 18 19 19 19 20 20 21 21 23 24 24 24 23 23 25 26 27 27 26 24 22 22 22 20 17 16 15 15 15 13 13 12 11 11 11 10 9 8 8
19 20 21 21 21 21 22 22 22 22 22 20 20 23 25 26 25 25 24 25 26 27 28 27 25 24 24 25 23 19 18 17 19 17 15 15 14 13 13 13 12 11 10
20 19 20 20 20 21 22 22 21 21 19 21 16 17 21 19 22 22 19 19 19 22 23 24 26 25 25 25 27 26 22 20 20 21 20 19 17 16 15 14 14 13 12
20 21 21 21 21 21 22 22 21 15 17 19 8 5 4 8 13 15 16 14 17 15 15 17 19 23 24 25 26 28 28 26 23 22 24 24 22 21 18 16 15 14 13
13 16 18 19 19 19 21 22 21 20 14 17 15 9 2 4 2 10 10 12 13 12 15 15 15 14 15 18 23 26 29 30 28 24 23 24 25 24 21 18 16 15 15
8 9 10 11 13 16 18 19 19 20 19 16 14 17 21 9 3 2 4 7 13 13 13 15 17 14 16 15 16 19 22 26 30 29 27 25 23 23 21 21 19 16 17
5 6 7 8 9 11 13 14 15 17 19 18 16 9 10 11 11 7 2 5 5 13 17 16 17 16 13 14 15 17 17 19 23 25 29 28 23 23 26 23 23 21 19
2 3 4 5 6 7 8 9 12 15 18 18 17 15 13 6 4 6 4 7 6 7 9 15 14 13 13 12 13 14 12 12 14 20 26 28 29 25 21 23 21 21 24
4 5 6 7 7 8 8 7 7 8 11 15 15 14 12 11 11 8 7 4 5 4 8 10 9 9 9 10 10 9 9 10 13 16 20 26 29 28 24 24 24 23 21
4 6 6 6 7 7 7 7 4 5 5 5 6 7 6 8 8 7 4 2 2 4 3 6 6 6 8 10 11 10 10 9 11 13 17 20 26 32 27 24 19 15 12
3 4 5 5 5 5 5 4 3 6 5 3 3 3 4 5 6 7 7 5 4 3 3 2 2 5 12 13 15 12 9 7 9 12 9 7 8 7 14 14 19 22 20
2 3 3 3 3 3 3 2 1 2 4 3 4 4 4 5 5 4 3 3 4 4 2 2 2 7 9 10 9 9 8 6 7 10 5 5 1 4 5 7 9 13 14
1 1 2 2 2 2 2 2 2 2 2 2 2 3 3 3 2 3 3 2 2 0 1 1 2 6 7 8 5 4 3 4 5 6 4 3 4 6 5 7 7 9 13
1 1 1 1 2 2 4 5 6 8 9 9 8 7 7 5 5 5 5 4 3 2 1 1 2 5 5 6 6 5 3 3 4 4 3 1 2 6 8 8 9 10 12
3 3 3 4 5 6 7 8 9 10 10 11 10 10 10 8 9 8 8 7 6 4 3 0 1 4 4 6 5 6 5 4 3 6 7 6 6 7 9 9 9 10 11
4 5 5 7 8 10 11 12 13 13 14 15 15 15 14 13 12 11 10 8 6 4 4 2 2 2 4 5 6 7 6 7 6 4 4 4 5 8 9 8 10 11 12
8 8 9 9 9 10 11 14 14 15 15 16 15 14 13 12 10 9 8 8 7 5 3 3 3 2 3 5 5 5 4 5 6 6 6 5 4 5 6 9 11 12 13
11 11 12 11 11 11 11 13 13 13 13 11 11 9 7 4 4 8 6 7 8 6 4 2 2 2 2 3 4 4 4 4 3 4 7 8 11 12 13 15 15 16 16
12 12 12 12 14 12 12 12 12 12 11 11 9 8 7 8 6 6 4 4 4 6 5 4 2 2 2 2 3 3 3 3 4 7 9 8 9 9 9 9 9 12 11
13 14 13 13 13 11 9 10 10 10 9 8 7 7 6 7 6 7 7 6 4 3 5 5 4 4 3 4 3 3 3 5 7 5 3 4 6 8 9 10 9 9 9
14 12 12 11 11 10 7 7 7 7 6 6 5 5 4 4 4 4 6 5 4 2 2 3 4 5 5 4 5 6 3 4 3 0 3 3 4 10 7 4 3 3 3
15 13 12 11 10 10 7 7 5 6 5 4 3 3 2 4 4 3 6 5 5 3 4 5 6 6 5 4 4 4 4 2 2 1 1 5 4 7 5 2 2 2 6
Wind_Direction
248 251 252 250 252 246 251 261 266 268 271 275 279 282 284 282 280 279 280 284 277 273 264 258 257 260 255 247 244 243 244 244 241 234 246 230 202 168 154 144 139 136 129
253 258 257 254 256 256 263 268 274 276 277 277 278 279 282 283 284 281 284 281 278 275 270 264 258 258 258 253 249 246 241 238 236 230 219 211 218 218 202 175 161 154 145
259 256 259 259 262 265 268 270 275 278 280 281 281 282 282 283 284 288 287 284 281 277 271 267 260 254 252 250 249 248 242 240 240 236 227 222 215 201 198 197 188 178 167
261 260 262 265 269 268 270 272 275 277 279 281 284 286 285 285 285 286 286 284 282 280 276 267 264 257 249 248 247 246 241 232 234 234 232 229 220 215 210 203 196 190 185
263 263 265 268 269 271 272 274 276 274 277 280 282 284 286 286 287 286 284 283 282 278 275 272 267 263 256 249 248 248 251 235 231 230 233 232 227 221 215 213 209 202 194
266 266 268 271 270 269 271 272 272 275 275 278 280 283 284 287 288 286 287 285 282 279 276 271 270 266 260 255 249 246 247 245 232 227 226 228 230 228 222 218 216 212 208
265 266 269 272 269 266 271 274 271 269 273 278 281 285 286 288 285 286 279 276 285 286 283 277 274 271 267 259 255 250 245 245 243 231 224 220 221 226 227 222 219 218 215
261 263 265 268 269 270 271 269 266 264 270 272 252 274 285 286 283 269 271 282 288 291 304 300 287 279 273 265 257 253 252 245 245 246 235 222 215 213 217 221 220 220 218
254 254 257 261 265 267 269 272 270 261 252 266 262 237 243 250 339 284 277 284 281 295 303 303 299 294 286 275 265 259 255 252 247 247 250 242 223 213 208 212 218 221 224
260 260 263 265 268 267 262 264 266 263 256 247 253 251 246 248 236 289 269 259 294 309 324 319 310 304 304 296 287 274 268 263 257 250 247 246 242 216 216 210 210 217 226
251 262 268 273 274 277 272 267 265 261 257 247 238 230 244 243 247 237 251 248 258 297 304 308 310 305 299 293 289 287 284 276 268 261 254 249 247 226 210 214 214 205 212
264 299 301 294 288 287 287 288 270 257 258 256 243 244 239 227 213 216 222 246 254 283 286 303 301 297 290 293 299 295 292 286 277 263 258 251 249 234 221 223 213 201 194
276 297 302 301 300 299 297 290 305 276 260 252 247 243 243 254 259 269 268 250 248 266 299 306 317 311 310 319 317 308 307 294 281 272 267 267 259 228 232 210 206 204 202
306 309 310 308 306 303 298 294 290 279 260 223 201 203 213 223 243 252 243 302 268 242 255 256 295 356 0 347 336 322 313 299 288 279 279 276 276 252 212 207 200 204 247
289 303 311 313 310 305 304 295 246 246 241 216 218 234 230 261 276 275 270 260 249 272 228 228 256 307 329 337 328 327 333 334 323 292 271 280 323 176 201 235 239 247 244
289 299 309 319 324 331 320 309 270 228 242 252 271 284 288 296 309 315 321 302 250 240 234 238 297 328 336 343 333 344 1 358 345 355 258 237 38 103 137 125 148 174 206
299 315 335 349 358 16 41 71 106 130 132 116 92 79 86 75 63 61 62 75 66 74 258 245 310 349 355 350 342 0 6 2 0 19 64 121 196 205 248 277 281 250 250
19 42 36 30 50 72 101 110 109 104 102 105 102 102 92 91 82 67 65 58 42 13 244 210 304 4 9 11 9 11 7 342 317 319 337 357 264 256 253 248 246 252 254
98 85 75 84 100 102 105 111 115 108 104 102 97 91 86 82 74 65 59 53 42 38 38 340 32 22 24 20 17 24 11 357 323 308 301 286 262 243 237 239 237 243 251
100 91 85 88 102 112 113 109 112 112 110 104 100 93 82 74 66 58 55 47 37 35 41 56 65 36 31 19 33 27 15 14 14 4 337 301 276 257 251 242 224 211 215
130 121 106 104 102 111 116 120 118 115 112 107 102 95 89 83 70 59 49 41 34 33 40 50 49 38 31 26 23 7 7 358 354 357 350 339 322 291 268 259 255 251 250
137 135 126 117 109 100 108 112 114 116 115 113 106 101 102 95 88 62 57 51 39 29 34 43 36 40 41 26 19 20 10 6 348 1 347 317 306 296 288 279 274 267 263
143 137 131 127 115 112 111 112 109 109 107 103 98 96 90 73 58 49 37 22 30 51 39 38 51 48 49 34 14 10 4 345 308 318 326 305 309 302 300 291 284 261 257
154 143 134 127 121 112 114 106 104 103 103 98 94 86 85 73 44 29 25 21 22 43 38 37 48 32 16 347 337 331 327 324 314 308 335 285 323 314 312 295 272 256 254
155 150 146 139 136 128 118 103 103 104 105 99 99 87 63 76 39 347 4 16 8 337 289 302 308 297 280 284 310 301 302 325 335 10 345 300 322 322 319 325 298 207 207
157 153 148 148 141 128 120 103 100 105 105 97 92 88 80 15 8 0 336 350 345 340 326 317 312 301 299 292 291 286 296 304 313 310 3 339 335 357 325 286 40 322 249